Location: Garbet
(42.8837°N, 1.2115°E)
Time: 14:15:27
(UTC+00:00)

AQUARIUS - Pass Details

Date: 13 December 2025
Orbit: 634 x 635 km, 98.0° (Epoch: 19 January)

Event Time Altitude Azimuth Distance (km) Brightness Sun altitude
Rises 17:10:35 0° 148° (SSE) 2,921 7.4 -8.9°
Reaches altitude 10° 17:12:51 10° 141° (SE) 2,017 6.5 -9.2°
Maximum altitude 17:16:59 42° 71° (ENE) 907 4.5 -9.9°
Drops below altitude 10° 17:21:10 10° 1° (N) 2,032 6.5 -10.6°
Sets 17:23:27 0° 354° (N) 2,945 7.4 -11.0°
